CZ-6A DEB, 54542

Orbit data source: Space-Track

CZ-6A DEB, 54542 is space debris in SSO originally from a launch on Fri, 11 Nov 2022 UTC launched from the Taiyaun Space Center, China (TSC). Debris objects in space refer to the collection of defunct objects orbiting the Earth. Examples of debris include non-operational satellites, rocket bodies, and fragments generated from explosions, collisions, or faulty payload assembly.

Loading next visibility...
Identifier
54542, 2022-151KS
Orbit
SSO
Country
Flag of CNCN / PRC
Related business
Manufacturer
SAST
Mission
Spacecraft
Bus & Motor
Unknown
Mass
Unknown
Launch date (UTC)
2022-11-11 (4 years ago)
Launch vehicle
Unknown
Launch site
Taiyaun Space Center, China (TSC)
Object type
Payload
Rocket body
Debris
Shape & HBR
Unknown shape, 0.1 m
Radar Cross Section
Medium (>0.1 m² and <1 m²)

Expand to show TLE details & history
Last TLE update: 10 hours ago

TLE from 10 hours ago
0 CZ-6A DEB
1 54542U 22151KS  26220.01110691  .00000226  00000-0  14378-3 0  9998
2 54542  98.8304 224.0823 0035787 168.2194 191.9824 14.13063464192363
Epoch: 2026-08-08T00:15Z
TLE epoch observation values (Epoch: 2026-08-08T00:15:59.637Z)
Latitude
0.00005°
Longitude
-96.44478°
Altitude
877.118 km
Speed
7.401 km/s
True Right ascension
14h 56m 19s
True Declination
0° 00' 00"
Sunlit
Object was in daylight at epoch
Visualization orbit readout
Latitude
Unknown
Longitude
Unknown
Altitude
Unknown
Speed
Unknown
Apparent Right ascension
Unknown
Apparent Declination
Unknown
Sunlit
N/A
Visualization observer readout
Local Sidereal Time
00:31:41
Azimuth
Unknown
Elevation
Unknown
Doppler factor
Unknown
Orbital elements
Apogee altitude
871.934 km
Perigee altitude
820.228 km
Semi-major axis
7,224.218 km
Eccentricity
0.00358
Inclination
98.8304°
RAAN
224.0823°
Arg. of periapsis
168.2194°
True anomaly
191.89763°
Mean anomaly
191.9824°
Eccentric anomaly
191.93998°
Mean motion
3.53474 °/min
Orbital period
101.85 mins
BSTAR
0.00014378
Loading maneuver chart data...
Computing Atmospheric mass density...
Loading historical data...
Loading historical data...
Loading historical data...
Loading historical data...
Loading historical data...
Loading historical data...
Loading historical data...

Documentation

Showing up to 5 results
|